• In Uzbekistan
  • List of Countries
  • For 7 days
  • Water Temperature
  • Satellite Maps
  • Weather Map
  • Weather Widgets
  • user-avatar
    Login

    Hourly Weather Tokmak

    Today, 20 January, Sunday

    Time Temperature Precipitation Wind Pressure Humidity
    00:00 -16°C° 0 mm 4 mps 476 mmHg 43%
    01:00 -18°C° 0 mm 5 mps 476 mmHg 46%
    02:00 -18°C° 0 mm 5 mps 476 mmHg 49%
    03:00 -18°C° 0 mm 5 mps 476 mmHg 47%
    04:00 -18°C° 0 mm 5 mps 475 mmHg 46%
    05:00 -18°C° 0 mm 5 mps 475 mmHg 44%
    06:00 -19°C° 0 mm 5 mps 475 mmHg 44%
    07:00 -19°C° 0 mm 5 mps 475 mmHg 43%
    08:00 -19°C° 0 mm 5 mps 474 mmHg 43%
    09:00 -17°C° 0 mm 5 mps 475 mmHg 47%
    10:00 -15°C° 0 mm 4 mps 476 mmHg 52%
    11:00 -12°C° 0 mm 3 mps 476 mmHg 57%
    12:00 -12°C° 0 mm 3 mps 476 mmHg 59%
    13:00 -12°C° 0 mm 3 mps 476 mmHg 60%
    14:00 -13°C° 0 mm 3 mps 475 mmHg 62%
    15:00 -14°C° 0 mm 3 mps 474 mmHg 62%
    16:00 -16°C° 0 mm 3 mps 473 mmHg 62%
    17:00 -17°C° 0 mm 3 mps 473 mmHg 61%
    18:00 -17°C° 0 mm 2 mps 473 mmHg 63%
    19:00 -18°C° 0 mm 2 mps 473 mmHg 65%
    20:00 -19°C° 0 mm 2 mps 473 mmHg 67%
    21:00 -19°C° 0 mm 2 mps 473 mmHg 66%
    22:00 -19°C° 0 mm 2 mps 473 mmHg 65%
    23:00 -19°C° 0 mm 2 mps 473 mmHg 64%

    Tomorrow, 21 January, Monday

    Time Temperature Precipitation Wind Pressure Humidity
    00:00 -19°C° 0.1 mm 2 mps 473 mmHg 70%
    01:00 -17°C° 0.1 mm 1 mps 473 mmHg 76%
    02:00 -17°C° 0.1 mm 1 mps 473 mmHg 82%
    03:00 -17°C° 0.1 mm 1 mps 474 mmHg 84%
    04:00 -17°C° 0.1 mm 1 mps 474 mmHg 85%
    05:00 -17°C° 0.1 mm 1 mps 474 mmHg 87%
    06:00 -18°C° 0.1 mm 1 mps 474 mmHg 86%
    07:00 -18°C° 0.1 mm 1 mps 474 mmHg 85%
    08:00 -20°C° 0.1 mm 2 mps 475 mmHg 84%
    09:00 -19°C° 0.2 mm 2 mps 475 mmHg 83%
    10:00 -18°C° 0.2 mm 2 mps 476 mmHg 82%
    11:00 -16°C° 0.2 mm 1 mps 477 mmHg 81%
    12:00 -16°C° 0.2 mm 1 mps 476 mmHg 81%
    13:00 -16°C° 0.2 mm 1 mps 476 mmHg 81%
    14:00 -16°C° 0.2 mm 1 mps 476 mmHg 81%
    15:00 -17°C° 0.1 mm 1 mps 476 mmHg 83%
    16:00 -17°C° 0.1 mm 1 mps 476 mmHg 85%
    17:00 -18°C° 0.1 mm 1 mps 476 mmHg 87%
    18:00 -18°C° 0.1 mm 1 mps 475 mmHg 86%
    19:00 -19°C° 0.1 mm 1 mps 475 mmHg 84%
    20:00 -20°C° 0.1 mm 1 mps 475 mmHg 82%
    21:00 -23°C° 0 mm 2 mps 475 mmHg 75%
    22:00 -23°C° 0 mm 2 mps 474 mmHg 69%
    23:00 -23°C° 0 mm 2 mps 474 mmHg 62%

    Day after tomorrow, 22 January, Tuesday

    Time Temperature Precipitation Wind Pressure Humidity
    00:00 -23°C° 0 mm 2 mps 474 mmHg 59%
    01:00 -23°C° 0 mm 2 mps 473 mmHg 56%
    02:00 -23°C° 0 mm 2 mps 473 mmHg 53%
    03:00 -23°C° 0 mm 2 mps 473 mmHg 52%
    04:00 -23°C° 0 mm 2 mps 473 mmHg 52%
    05:00 -23°C° 0 mm 2 mps 472 mmHg 51%
    06:00 -23°C° 0 mm 2 mps 472 mmHg 51%
    07:00 -23°C° 0 mm 2 mps 472 mmHg 51%
    08:00 -23°C° 0 mm 2 mps 472 mmHg 51%
    09:00 -18°C° 0 mm 1 mps 473 mmHg 50%
    10:00 -16°C° 0 mm 1 mps 474 mmHg 50%
    11:00 -14°C° 0 mm 1 mps 475 mmHg 50%
    12:00 -14°C° 0 mm 1 mps 475 mmHg 52%
    13:00 -14°C° 0 mm 1 mps 474 mmHg 54%
    14:00 -14°C° 0 mm 1 mps 474 mmHg 56%
    15:00 -15°C° 0 mm 1 mps 473 mmHg 59%
    16:00 -16°C° 0 mm 1 mps 472 mmHg 62%
    17:00 -18°C° 0 mm 1 mps 471 mmHg 65%
    18:00 -20°C° 0 mm 2 mps 471 mmHg 61%
    19:00 -20°C° 0 mm 2 mps 472 mmHg 57%
    20:00 -20°C° 0 mm 2 mps 472 mmHg 53%
    21:00 -19°C° 0 mm 2 mps 472 mmHg 51%
    22:00 -19°C° 0 mm 2 mps 472 mmHg 50%
    23:00 -19°C° 0 mm 2 mps 472 mmHg 48%

    23 January, Wednesday

    Time Temperature Precipitation Wind Pressure Humidity
    00:00 -19°C° 0 mm 2 mps 472 mmHg 48%
    01:00 -19°C° 0 mm 2 mps 472 mmHg 48%
    02:00 -20°C° 0 mm 2 mps 472 mmHg 48%
    03:00 -20°C° 0 mm 2 mps 472 mmHg 50%
    04:00 -20°C° 0 mm 2 mps 472 mmHg 52%
    05:00 -20°C° 0 mm 2 mps 472 mmHg 53%
    06:00 -20°C° 0 mm 2 mps 472 mmHg 55%
    07:00 -20°C° 0 mm 2 mps 473 mmHg 57%
    08:00 -20°C° 0 mm 2 mps 473 mmHg 59%
    09:00 -19°C° 0 mm 2 mps 474 mmHg 60%
    10:00 -16°C° 0 mm 1 mps 474 mmHg 62%
    11:00 -15°C° 0 mm 1 mps 475 mmHg 63%
    12:00 -15°C° 0 mm 1 mps 475 mmHg 65%
    13:00 -15°C° 0 mm 1 mps 475 mmHg 68%
    14:00 -15°C° 0 mm 1 mps 475 mmHg 70%
    15:00 -16°C° 0 mm 1 mps 474 mmHg 73%
    16:00 -18°C° 0 mm 1 mps 473 mmHg 75%
    17:00 -21°C° 0 mm 2 mps 472 mmHg 77%
    18:00 -21°C° 0 mm 2 mps 472 mmHg 73%
    19:00 -21°C° 0 mm 2 mps 473 mmHg 69%
    20:00 -23°C° 0 mm 2 mps 473 mmHg 65%
    21:00 -23°C° 0 mm 2 mps 473 mmHg 62%
    22:00 -24°C° 0 mm 3 mps 473 mmHg 59%
    23:00 -23°C° 0 mm 3 mps 473 mmHg 56%

    24 January, Thursday

    Time Temperature Precipitation Wind Pressure Humidity
    00:00 -24°C° 0 mm 3 mps 473 mmHg 56%
    01:00 -23°C° 0 mm 2 mps 473 mmHg 55%
    02:00 -23°C° 0 mm 2 mps 473 mmHg 54%
    03:00 -23°C° 0 mm 2 mps 473 mmHg 55%
    04:00 -23°C° 0 mm 2 mps 473 mmHg 56%
    05:00 -23°C° 0 mm 2 mps 473 mmHg 56%
    06:00 -21°C° 0 mm 2 mps 474 mmHg 57%
    07:00 -21°C° 0 mm 2 mps 474 mmHg 58%
    08:00 -21°C° 0 mm 2 mps 474 mmHg 59%
    09:00 -20°C° 0 mm 2 mps 475 mmHg 60%
    10:00 -19°C° 0 mm 2 mps 476 mmHg 60%
    11:00 -18°C° 0 mm 2 mps 477 mmHg 61%
    12:00 -18°C° 0 mm 2 mps 477 mmHg 63%
    13:00 -18°C° 0 mm 2 mps 477 mmHg 64%
    14:00 -16°C° 0 mm 1 mps 476 mmHg 66%
    15:00 -19°C° 0 mm 2 mps 476 mmHg 69%
    16:00 -20°C° 0 mm 2 mps 475 mmHg 72%
    17:00 -21°C° 0 mm 2 mps 475 mmHg 75%
    18:00 -21°C° 0 mm 2 mps 475 mmHg 73%
    19:00 -23°C° 0 mm 2 mps 475 mmHg 71%
    20:00 -24°C° 0 mm 3 mps 475 mmHg 69%
    21:00 -24°C° 0 mm 3 mps 475 mmHg 68%
    22:00 -24°C° 0 mm 3 mps 475 mmHg 66%
    23:00 -25°C° 0 mm 3 mps 475 mmHg 65%

    25 January, Friday

    Time Temperature Precipitation Wind Pressure Humidity
    00:00 -25°C° 0 mm 3 mps 475 mmHg 65%
    01:00 -25°C° 0 mm 3 mps 475 mmHg 64%
    02:00 -25°C° 0 mm 3 mps 475 mmHg 63%
    03:00 -25°C° 0 mm 3 mps 475 mmHg 63%
    04:00 -25°C° 0 mm 3 mps 475 mmHg 62%
    05:00 -25°C° 0 mm 3 mps 475 mmHg 61%
    06:00 -25°C° 0 mm 3 mps 475 mmHg 61%
    07:00 -25°C° 0 mm 3 mps 475 mmHg 61%
    08:00 -25°C° 0 mm 3 mps 475 mmHg 61%
    09:00 -21°C° 0 mm 2 mps 475 mmHg 61%
    10:00 -20°C° 0 mm 2 mps 476 mmHg 62%
    11:00 -19°C° 0 mm 2 mps 477 mmHg 62%
    12:00 -19°C° 0 mm 2 mps 476 mmHg 63%
    13:00 -19°C° 0 mm 2 mps 476 mmHg 65%
    14:00 -19°C° 0 mm 2 mps 476 mmHg 66%
    15:00 -20°C° 0.1 mm 2 mps 475 mmHg 70%
    16:00 -19°C° 0.1 mm 1 mps 475 mmHg 73%
    17:00 -20°C° 0.1 mm 1 mps 474 mmHg 76%
    18:00 -20°C° 0 mm 1 mps 474 mmHg 75%
    19:00 -24°C° 0 mm 2 mps 475 mmHg 73%
    20:00 -24°C° 0 mm 2 mps 475 mmHg 72%
    21:00 -24°C° 0 mm 2 mps 475 mmHg 70%
    22:00 -24°C° 0 mm 2 mps 475 mmHg 68%
    23:00 -24°C° 0 mm 2 mps 475 mmHg 66%
    Show more